Location: Madrid
(40.4000°N, 3.6830°W)
Time: 23:25:08
(UTC+02:00)

ISS - Pass Details

Date: 23 May 2019
Orbit: 408 x 418 km, 51.6° (Epoch: 26 May)

Event Time Altitude Azimuth Distance (km) Brightness Sun altitude
Rises 01:51:49 0° 312° (NW) 2,359 0.7 -28.9°
Reaches altitude 10° 01:54:28 10° 334° (NNW) 1,496 -0.2 -29.0°
Enters shadow 01:56:28 17° 10° (N) 1,162 -0.8 -29.0°
